TimeEDT,TemperatureF,Dew PointF,Humidity,Sea Level PressureIn,VisibilityMPH,Wind Direction,Wind SpeedMPH,Gust SpeedMPH,PrecipitationIn,Events,Conditions,WindDirDegrees,DateUTC
12:12 AM,62.6,59.0,88,29.87,10.0,South,24.2,34.5,0.00,Rain,Light Rain,170,2013-11-01 04:12:00
12:47 AM,62.6,57.2,82,29.81,10.0,South,26.5,42.6,0.00,Rain,Light Rain,180,2013-11-01 04:47:00
12:54 AM,63.0,57.9,84,29.77,10.0,South,21.9,35.7,0.00,Rain,Light Rain,180,2013-11-01 04:54:00
1:54 AM,63.0,57.9,84,29.79,10.0,South,11.5,31.1,0.01,,Overcast,190,2013-11-01 05:54:00
2:54 AM,63.0,57.0,81,29.77,10.0,South,15.0,25.3,N/A,,Overcast,190,2013-11-01 06:54:00
3:54 AM,62.1,57.0,84,29.76,10.0,South,13.8,19.6,0.00,Rain,Light Rain,180,2013-11-01 07:54:00
4:54 AM,62.1,59.0,90,29.73,10.0,South,17.3,32.2,0.00,,Overcast,190,2013-11-01 08:54:00
5:29 AM,62.6,59.0,88,29.78,10.0,South,17.3,26.5,0.00,,Overcast,190,2013-11-01 09:29:00
5:54 AM,63.0,59.0,87,29.73,10.0,South,16.1,25.3,0.00,Rain,Light Rain,180,2013-11-01 09:54:00
6:06 AM,62.6,59.0,88,29.78,10.0,South,15.0,23.0,0.00,Rain,Light Rain,190,2013-11-01 10:06:00
6:14 AM,62.6,59.0,88,29.78,10.0,SSW,9.2,20.7,0.00,,Overcast,210,2013-11-01 10:14:00
6:51 AM,62.6,59.0,88,29.78,10.0,South,12.7,-,0.00,,Overcast,180,2013-11-01 10:51:00
6:54 AM,62.1,59.0,90,29.73,10.0,South,12.7,-,0.00,,Overcast,190,2013-11-01 10:54:00
7:35 AM,62.6,59.0,88,29.80,10.0,SSW,11.5,-,0.00,Rain,Light Rain,210,2013-11-01 11:35:00
7:50 AM,62.6,60.8,94,29.80,10.0,SSW,8.1,-,0.00,Rain,Light Rain,200,2013-11-01 11:50:00
7:54 AM,63.0,60.1,90,29.74,10.0,South,5.8,-,0.00,Rain,Light Rain,190,2013-11-01 11:54:00
8:39 AM,62.6,60.8,94,29.83,3.0,NNW,10.4,-,0.02,Rain,Light Rain,330,2013-11-01 12:39:00
8:41 AM,60.8,59.0,94,29.83,2.5,NNW,9.2,-,0.03,Rain,Light Rain,340,2013-11-01 12:41:00
8:45 AM,60.8,59.0,94,29.83,1.8,North,6.9,-,0.06,Rain,Light Rain,350,2013-11-01 12:45:00
8:51 AM,60.8,59.0,94,29.83,3.0,North,5.8,-,0.08,Rain,Light Rain,350,2013-11-01 12:51:00
8:54 AM,61.0,59.0,93,29.78,4.0,North,5.8,-,0.08,Rain,Light Rain,350,2013-11-01 12:54:00
9:54 AM,60.1,57.9,93,29.79,4.0,NNW,5.8,-,0.02,Rain,Light Rain,330,2013-11-01 13:54:00
10:01 AM,60.8,57.2,88,29.84,7.0,North,3.5,-,0.00,Rain,Light Rain,360,2013-11-01 14:01:00
10:08 AM,60.8,57.2,88,29.84,7.0,Calm,Calm,-,0.00,Rain,Light Rain,0,2013-11-01 14:08:00
10:18 AM,62.6,57.2,82,29.83,7.0,North,4.6,-,0.00,Rain,Light Rain,10,2013-11-01 14:18:00
10:54 AM,64.0,55.9,75,29.77,10.0,North,5.8,-,0.00,,Clear,10,2013-11-01 14:54:00
11:54 AM,66.9,57.0,70,29.75,10.0,South,8.1,-,N/A,,Partly Cloudy,170,2013-11-01 15:54:00
12:54 PM,68.0,55.0,63,29.73,10.0,South,5.8,-,N/A,,Clear,170,2013-11-01 16:54:00
1:54 PM,72.0,52.0,49,29.68,10.0,South,4.6,-,N/A,,Clear,170,2013-11-01 17:54:00
2:54 PM,73.0,48.0,41,29.66,10.0,Calm,Calm,-,N/A,,Clear,0,2013-11-01 18:54:00
3:54 PM,73.9,48.9,41,29.62,10.0,South,5.8,-,N/A,,Clear,190,2013-11-01 19:54:00
4:54 PM,73.0,51.1,46,29.63,10.0,SSW,9.2,-,N/A,,Clear,200,2013-11-01 20:54:00
5:54 PM,68.0,55.9,65,29.65,10.0,South,10.4,-,N/A,,Clear,180,2013-11-01 21:54:00
6:54 PM,66.0,54.0,65,29.69,10.0,WNW,4.6,-,N/A,,Partly Cloudy,290,2013-11-01 22:54:00
7:54 PM,62.1,46.9,58,29.71,10.0,NNW,10.4,-,N/A,,Clear,340,2013-11-01 23:54:00
8:54 PM,60.1,46.9,62,29.73,10.0,NNW,9.2,-,N/A,,Clear,340,2013-11-02 00:54:00
9:54 PM,57.0,46.9,69,29.75,10.0,NNW,5.8,-,N/A,,Clear,340,2013-11-02 01:54:00
10:54 PM,54.0,46.0,75,29.77,10.0,NNW,4.6,-,N/A,,Clear,330,2013-11-02 02:54:00
11:54 PM,54.0,46.0,75,29.77,10.0,North,4.6,-,N/A,,Clear,350,2013-11-02 03:54:00